Nuiqsut, AK

2:32 PM AKST on February 24, 2017 (GMT -0900)
Nuiqsut

Weather History for PAQT - March, 2014

Change the Weather History Date:

Sunday, March 23, 2014

  Actual Average (PAKU) Record (PAKU)
Temperature  
Mean Temperature -5 °F -  
Max Temperature 1 °F -6 °F 21 °F (2002)
Min Temperature -11 °F -15 °F -37 °F (1984)
Degree Days  
Heating Degree Days 70    
Moisture  
Dew Point -9 °F    
Average Humidity 87    
Maximum Humidity 95    
Minimum Humidity 82    
Precipitation  
Precipitation 0.00 in - - ()
Sea Level Pressure  
Sea Level Pressure 30.63 in    
Wind  
Wind Speed 8 mph (SSW)    
Max Wind Speed 13 mph    
Max Gust Speed -    
Visibility 10 miles    
Events      
Averages and records for this station are not official NWS values.
T = Trace of Precipitation, MM = Missing Value Source: NWS Daily Summary

Daily Weather History Graph

Daily Weather History Graph

Search for Another Location

Airport or City:

Trip Planner

Search our weather history database for the weather conditions in past years. The results will help you decide how hot, cold, wet, or windy it might be!

Date:

Astronomy

Mar. 23, 2014 Rise Set
Actual Time 7:47 AM AKDT 8:35 PM AKDT
Civil Twilight 6:45 AM AKDT 9:38 PM AKDT
Nautical Twilight 5:22 AM AKDT 11:02 PM AKDT
Astronomical Twilight 3:10 AM AKDT 1:28 AM AKDT
Moon 6:41 AM AKDT (3/23) 8:59 AM AKDT (3/23)
Length of Visible Light 14h 53m
Length of Day
12h 47m
Waning Gibbous, 53% of the Moon is Illuminated
Mar 23
Waning Gibbous
Mar 23
Last Quarter
Mar 30
New
Apr 7
First Quarter
Apr 14
Full

Hourly Weather History & Observations

Time (AKDT) Temp. Windchill Dew Point Humidity Pressure Visibility Wind Dir Wind Speed Gust Speed Precip Events Conditions
12:53 AM -7.1 °F -25.0 °F -9.0 °F 91% 30.70 in 10.0 mi South 10.4 mph - N/A   Clear
1:53 AM -8.0 °F -23.9 °F -9.9 °F 91% 30.69 in 10.0 mi South 8.1 mph - N/A   Clear
2:53 AM -9.0 °F -25.2 °F -11.9 °F 87% 30.69 in 10.0 mi South 8.1 mph - N/A   Clear
3:53 AM -9.9 °F - -11.0 °F 95% 30.70 in 10.0 mi Calm Calm - N/A   Clear
4:53 AM -9.9 °F -26.3 °F -13.0 °F 86% 30.68 in 10.0 mi South 8.1 mph - N/A   Clear
5:53 AM -11.9 °F -31.0 °F -15.0 °F 86% 30.67 in 10.0 mi South 10.4 mph - N/A   Clear
6:53 AM -11.9 °F -28.7 °F -15.0 °F 86% 30.66 in 10.0 mi South 8.1 mph - N/A   Clear
7:53 AM -11.0 °F -29.9 °F -14.1 °F 86% 30.65 in 10.0 mi South 10.4 mph - N/A   Clear
8:53 AM -11.9 °F -25.7 °F -14.1 °F 90% 30.65 in 10.0 mi SSW 5.8 mph - N/A   Clear
9:53 AM -11.9 °F -29.9 °F -14.1 °F 90% 30.64 in 10.0 mi South 9.2 mph - N/A   Clear
10:53 AM -7.1 °F -26.8 °F -11.0 °F 83% 30.63 in 10.0 mi SSW 12.7 mph - N/A   Clear
11:53 AM -5.1 °F -22.5 °F -8.0 °F 87% 30.63 in 10.0 mi South 10.4 mph - N/A   Clear
12:53 PM -2.9 °F -19.8 °F -7.1 °F 82% 30.63 in 10.0 mi SSW 10.4 mph - N/A   Clear
1:53 PM -0.9 °F -15.3 °F -5.1 °F 83% 30.63 in 10.0 mi SSW 8.1 mph - N/A   Clear
2:53 PM 1.0 °F -10.3 °F -2.9 °F 83% 30.63 in 10.0 mi SW 5.8 mph - 0.00 in   Clear
3:53 PM 1.0 °F -6.7 °F -0.9 °F 91% 30.61 in 10.0 mi South 3.5 mph - 0.00 in   Clear
4:53 PM 1.0 °F -11.7 °F -2.0 °F 87% 30.60 in 10.0 mi South 6.9 mph - 0.00 in   Clear
5:53 PM 1.0 °F -12.9 °F -2.9 °F 83% 30.59 in 10.0 mi South 8.1 mph - 0.00 in   Clear
6:53 PM -0.0 °F -15.3 °F -4.0 °F 83% 30.58 in 10.0 mi SSW 9.2 mph - 0.00 in   Clear
7:53 PM -0.9 °F -14.1 °F -5.1 °F 83% 30.58 in 10.0 mi SSW 6.9 mph - 0.00 in   Clear
8:53 PM -2.9 °F -13.3 °F -7.1 °F 82% 30.59 in 10.0 mi SSW 4.6 mph - N/A   Clear
9:53 PM -7.1 °F -22.8 °F -9.0 °F 91% 30.58 in 10.0 mi SSW 8.1 mph - N/A   Clear
10:53 PM -8.0 °F -26.1 °F -9.0 °F 95% 30.57 in 10.0 mi SW 10.4 mph - N/A   Clear
11:53 PM -9.9 °F -27.5 °F -11.9 °F 91% 30.58 in 10.0 mi SW 9.2 mph - N/A   Clear